Flag for Mongolia Weather past 2 weeks in Ulaanbaatar, Mongolia

10 °F

Passing clouds.

Feels Like: 10 °F
Forecast: -2 / 19 °F
Wind: No wind

Location: Ulan-Bator

Current Time: Nov 28, 2015 at 6:49:43 AM

Latest Report: Nov 28, 2015 at 6:30 AM

Visibility: 5 mi

Pressure: 29.92 "Hg (25.25 "Hg at 1298m altitude)

Humidity: 85%

Dew point: 7 °F

Location of UlaanbaatarLocation

Historic Weather in Ulaanbaatar — Graph


Ulaanbaatar temperature yesterday

Maximum temperature yesterday: 12 °F (at 5:30 PM)
Minimum temperature yesterday: -13 °F (at 9:30 AM)
Average temperature yesterday: 0 °F

Past Weeks' High & Low Weather Summary

High81 °F (Nov 21, 6:30 AM)93% (Nov 13, 8:00 PM)30.51 "Hg (Nov 13, 8:00 PM)
Low-35 °F (Nov 25, 7:00 AM)1% (Nov 21, 6:30 AM)29.62 "Hg (Nov 13, 5:00 AM)
Average-5 °F76%30.16 "Hg
* Reported Nov 13 5:00 AM — Nov 28 5:30 AM, Ulaanbaatar, Weather by CustomWeather, © 2015

Note: Actual official high and low records may vary slightly from our data, if they occured in-between our weather recording intervals... More about our weather records


Ulaanbaatar weather history for previous 24 hours

Time TempWeatherWind HumidityBarometerVisibility
5:30 AM
Sat, Nov 28
10 °FPassing clouds.No wind85%29.92 "Hg5 mi
5:00 AM10 °FOvercast.No wind85%29.92 "Hg4 mi
4:00 AM9 °FLight snow. Overcast.No wind85%29.92 "Hg4 mi
3:00 AM7 °FLight snow. Passing clouds.1 mph85%29.95 "Hg4 mi
2:00 AM3 °FLight snow. Passing clouds.1 mph85%29.92 "Hg4 mi
1:00 AM5 °FPassing clouds.No wind85%29.95 "Hg4 mi
12:30 AM7 °FPassing clouds.1 mph78%29.95 "Hg4 mi
12:00 AM7 °FPassing clouds.No wind85%29.98 "Hg4 mi
11:30 PM
Fri, Nov 27
7 °FPassing clouds.No wind85%29.98 "Hg4 mi
11:00 PM5 °FPassing clouds.No wind85%29.98 "Hg4 mi
10:30 PM5 °FPassing clouds.1 mph85%29.98 "Hg4 mi
10:00 PM3 °FPassing clouds.1 mph85%29.98 "Hg4 mi
9:30 PM0 °FPassing clouds.6 mph84%29.98 "Hg4 mi
9:00 PM-2 °FPassing clouds.6 mph84%29.98 "Hg4 mi
8:30 PM5 °FPassing clouds.1 mph72%29.98 "Hg3 mi
8:00 PM10 °FPassing clouds.No wind85%29.98 "Hg3 mi
7:30 PM12 °FPassing clouds.No wind73%29.98 "Hg2 mi
7:00 PM12 °FPassing clouds.No wind73%29.98 "Hg2 mi
6:30 PM12 °FPassing clouds.1 mph73%29.95 "Hg2 mi
6:00 PM12 °FPartly sunny.No wind73%29.98 "Hg2 mi
5:30 PM12 °FPartly sunny.No wind73%29.95 "Hg2 mi
5:00 PM10 °FPartly sunny.1 mph79%29.95 "Hg2 mi
4:30 PM10 °FPartly sunny.1 mph79%29.95 "Hg2 mi
4:00 PM10 °FPartly sunny.1 mph79%29.95 "Hg2 mi
2:30 PM10 °FPartly sunny.No wind67%29.95 "Hg2 mi
2:00 PM9 °FPartly sunny.No wind66%29.98 "Hg2 mi
1:30 PM7 °FPartly sunny.No wind66%29.98 "Hg2 mi
1:00 PM7 °FPartly sunny.No wind66%29.98 "Hg2 mi
12:00 PM3 °FScattered clouds.1 mph66%30.01 "Hg2 mi
11:30 AM0 °FScattered clouds.1 mph71%30.01 "Hg2 mi
11:00 AM-2 °FScattered clouds.1 mph77%30.01 "Hg2 mi
10:30 AM-6 °FScattered clouds.1 mph84%30.01 "Hg2 mi
10:00 AM-9 °FScattered clouds.1 mph70%30.04 "Hg2 mi
9:30 AM-13 °FScattered clouds.3 mph76%30.04 "Hg2 mi
9:00 AM-11 °FPassing clouds.3 mph76%30.01 "Hg2 mi
8:30 AM-8 °FPassing clouds.1 mph77%30.01 "Hg2 mi
8:00 AM-11 °FPassing clouds.1 mph84%30.01 "Hg3 mi
7:30 AM-6 °FPassing clouds.1 mph77%30.01 "Hg3 mi
7:00 AM-6 °FPassing clouds.1 mph77%30.01 "Hg3 mi
6:30 AM-6 °FPassing clouds.1 mph77%30.01 "Hg3 mi
6:00 AM-9 °FPassing clouds.3 mph77%29.98 "Hg3 mi
Weather by CustomWeather, © 2015

See weather overviewHow to use our weather pages